Weather History for Dubois Muni, Dubois, WY, WY

Change the Weather History Date:

Friday, January 31, 2014

  Actual Average (KJAC) Record (KJAC)
Temperature  
Mean Temperature 16 °F -  
Max Temperature 28 °F 25 °F 45 °F (1960)
Min Temperature 5 °F -1 °F -40 °F (1985)
Degree Days  
Heating Degree Days 48    
Moisture  
Dew Point 8 °F    
Average Humidity 69    
Maximum Humidity 100    
Minimum Humidity 40    
Precipitation  
Precipitation 0.00 in - - ()
Sea Level Pressure  
Sea Level Pressure 29.65 in    
Wind  
Wind Speed 8 mph (NW)    
Max Wind Speed 20 mph    
Max Gust Speed 24 mph    
Visibility 10 miles    
Events Snow    
Averages and records for this station are not official NWS values.
T = Trace of Precipitation, MM = Missing Value Source: NWS Daily Summary

Daily Weather History Graph

Daily Weather History Graph

Search for Another Location

Airport:

Trip Planner

Search our weather history database for the weather conditions in past years. The results will help you decide how hot, cold, wet, or windy it might be!

Date:

Astronomy

Jan. 31, 2014 Rise Set
Actual Time 7:36 AM MST 5:28 PM MST
Civil Twilight 7:05 AM MST 5:59 PM MST
Nautical Twilight 6:31 AM MST 6:33 PM MST
Astronomical Twilight 5:57 AM MST 7:07 PM MST
Moon 7:44 AM MST (1/31) 7:01 PM MST (1/31)
Length of Visible Light 10h 53m
Length of Day
9h 52m
New Moon, 1% of the Moon is Illuminated
Jan 31
New Moon
Feb 6
First Quarter
Feb 14
Full
Feb 22
Last Quarter
Mar 1
New

Hourly Weather History & Observations

Time (MST) Temp. Windchill Dew Point Humidity Pressure Visibility Wind Dir Wind Speed Gust Speed Precip Events Conditions
12:15 AM 17.6 °F 10.7 °F 15.8 °F 93% 29.65 in 10.0 mi SE 4.6 mph - N/A   Overcast
12:35 AM 17.6 °F 12.3 °F 15.8 °F 93% 29.65 in 10.0 mi SE 3.5 mph - N/A   Overcast
12:55 AM 15.8 °F 7.2 °F 14.0 °F 93% 29.65 in 10.0 mi South 5.8 mph - N/A   Overcast
1:15 AM 15.8 °F 8.6 °F 14.0 °F 93% 29.65 in 10.0 mi South 4.6 mph - N/A   Overcast
1:35 AM 17.6 °F 12.3 °F 14.0 °F 86% 29.65 in 10.0 mi South 3.5 mph - N/A   Overcast
1:55 AM 15.8 °F - 14.0 °F 93% 29.64 in 10.0 mi Calm Calm - N/A   Overcast
2:15 AM 17.6 °F - 14.0 °F 86% 29.64 in 10.0 mi Calm Calm - N/A   Overcast
2:35 AM 17.6 °F - 14.0 °F 86% 29.65 in 10.0 mi Calm Calm - N/A   Overcast
2:55 AM 17.6 °F - 14.0 °F 86% 29.65 in 10.0 mi Calm Calm - N/A   Overcast
3:15 AM 17.6 °F - 14.0 °F 86% 29.64 in 10.0 mi Calm Calm - N/A   Overcast
3:35 AM 15.8 °F 6.1 °F 14.0 °F 93% 29.65 in 10.0 mi NW 6.9 mph - N/A   Overcast
3:55 AM 14.0 °F 3.9 °F 12.2 °F 93% 29.64 in 10.0 mi NW 6.9 mph - N/A   Overcast
4:15 AM 12.2 °F 6.1 °F 12.2 °F 100% 29.63 in 10.0 mi NNW 3.5 mph - N/A   Overcast
4:35 AM 10.4 °F - 8.6 °F 92% 29.63 in 10.0 mi Calm Calm - N/A   Scattered Clouds
4:55 AM 10.4 °F -0.4 °F 8.6 °F 92% 29.63 in 10.0 mi WNW 6.9 mph - N/A   Scattered Clouds
5:15 AM 10.4 °F 4.0 °F 8.6 °F 92% 29.63 in 10.0 mi West 3.5 mph - N/A   Clear
5:35 AM 8.6 °F -2.6 °F 6.8 °F 92% 29.64 in 10.0 mi WNW 6.9 mph - N/A   Clear
5:55 AM 8.6 °F -1.3 °F 6.8 °F 92% 29.63 in 10.0 mi NW 5.8 mph - N/A   Scattered Clouds
6:15 AM 8.6 °F 2.0 °F 5.0 °F 85% 29.63 in 10.0 mi West 3.5 mph - N/A   Scattered Clouds
6:35 AM 5.0 °F - 3.2 °F 92% 29.63 in 10.0 mi Calm Calm - N/A   Mostly Cloudy
6:55 AM 10.4 °F - 8.6 °F 92% 29.64 in 10.0 mi Calm Calm - N/A   Overcast
7:15 AM 10.4 °F -2.4 °F 8.6 °F 92% 29.65 in 10.0 mi NW 9.2 mph - N/A   Overcast
7:35 AM 12.2 °F -0.2 °F 8.6 °F 85% 29.63 in 10.0 mi WNW 9.2 mph - N/A   Overcast
7:55 AM 12.2 °F 4.3 °F 10.4 °F 92% 29.63 in 10.0 mi NW 4.6 mph - N/A   Overcast
8:15 AM 19.4 °F 6.6 °F 10.4 °F 68% 29.63 in 10.0 mi WNW 12.7 mph - N/A   Mostly Cloudy
8:35 AM 21.2 °F 7.8 °F 8.6 °F 58% 29.63 in 10.0 mi West 15.0 mph - N/A   Scattered Clouds
8:55 AM 21.2 °F 6.8 °F 8.6 °F 58% 29.64 in 10.0 mi West 17.3 mph 21.9 mph N/A   Scattered Clouds
9:15 AM 23.0 °F 8.3 °F 8.6 °F 54% 29.64 in 10.0 mi West 19.6 mph 23.0 mph N/A   Scattered Clouds
9:35 AM 23.0 °F 9.2 °F 8.6 °F 54% 29.65 in 10.0 mi WNW 17.3 mph 24.2 mph N/A   Clear
9:55 AM 24.8 °F 12.9 °F 8.6 °F 50% 29.65 in 10.0 mi WNW 13.8 mph 23.0 mph N/A   Mostly Cloudy
10:15 AM 24.8 °F 12.4 °F 8.6 °F 50% 29.66 in 10.0 mi WNW 15.0 mph 18.4 mph N/A   Mostly Cloudy
10:35 AM 23.0 °F 10.1 °F 8.6 °F 54% 29.66 in 10.0 mi WNW 15.0 mph 19.6 mph N/A   Mostly Cloudy
10:55 AM 26.6 °F 15.7 °F 10.4 °F 51% 29.65 in 10.0 mi NNW 12.7 mph 19.6 mph N/A   Mostly Cloudy
11:15 AM 24.8 °F 13.4 °F 12.2 °F 59% 29.66 in 7.0 mi NNW 12.7 mph 19.6 mph N/A Snow Light Snow
11:35 AM 26.6 °F 14.7 °F 10.4 °F 51% 29.65 in 10.0 mi WNW 15.0 mph 18.4 mph N/A   Overcast
11:55 AM 24.8 °F 13.4 °F 10.4 °F 54% 29.64 in 10.0 mi NNW 12.7 mph 17.3 mph N/A   Mostly Cloudy
12:15 PM 24.8 °F 12.9 °F 10.4 °F 54% 29.63 in 10.0 mi North 13.8 mph 18.4 mph N/A   Scattered Clouds
12:35 PM 24.8 °F 13.4 °F 10.4 °F 54% 29.63 in 10.0 mi NW 12.7 mph 19.6 mph N/A   Scattered Clouds
12:55 PM 26.6 °F 14.7 °F 5.0 °F 40% 29.62 in 10.0 mi NW 15.0 mph - N/A   Mostly Cloudy
1:15 PM 26.6 °F 14.7 °F 10.4 °F 51% 29.61 in 10.0 mi NNW 15.0 mph 23.0 mph N/A   Overcast
1:35 PM 26.6 °F 13.8 °F 10.4 °F 51% 29.61 in 10.0 mi NNW 17.3 mph - N/A   Overcast
1:55 PM 23.0 °F 10.6 °F 12.2 °F 63% 29.61 in 10.0 mi NNW 13.8 mph - N/A   Overcast
2:15 PM 24.8 °F 14.0 °F 10.4 °F 54% 29.61 in 10.0 mi NNW 11.5 mph - N/A   Overcast
2:35 PM 26.6 °F 14.7 °F 8.6 °F 47% 29.61 in 10.0 mi NNW 15.0 mph 23.0 mph N/A   Mostly Cloudy
2:55 PM 28.4 °F 16.2 °F 8.6 °F 43% 29.61 in 10.0 mi NW 17.3 mph 20.7 mph N/A   Overcast
3:15 PM 24.8 °F 11.9 °F 8.6 °F 50% 29.62 in 10.0 mi NNW 16.1 mph 24.2 mph N/A   Overcast
3:35 PM 23.0 °F 9.6 °F 10.4 °F 59% 29.63 in 10.0 mi NNW 16.1 mph 23.0 mph N/A   Mostly Cloudy
3:55 PM 21.2 °F 6.4 °F 5.0 °F 50% 29.64 in 10.0 mi NW 18.4 mph 24.2 mph N/A   Mostly Cloudy
4:15 PM 21.2 °F 8.3 °F 6.8 °F 54% 29.65 in 10.0 mi NW 13.8 mph 17.3 mph N/A   Mostly Cloudy
4:35 PM 19.4 °F 5.0 °F 5.0 °F 54% 29.65 in 10.0 mi NW 16.1 mph 20.7 mph N/A   Scattered Clouds
4:55 PM 19.4 °F 5.0 °F 5.0 °F 54% 29.66 in 10.0 mi NW 16.1 mph - N/A   Mostly Cloudy
5:15 PM 19.4 °F 6.6 °F 5.0 °F 54% 29.66 in 10.0 mi NW 12.7 mph - N/A   Scattered Clouds
5:35 PM 17.6 °F 6.4 °F 5.0 °F 58% 29.67 in 10.0 mi NW 9.2 mph - N/A   Scattered Clouds
5:55 PM 17.6 °F 4.3 °F 5.0 °F 58% 29.68 in 10.0 mi WNW 12.7 mph - N/A   Scattered Clouds
6:15 PM 17.6 °F 2.7 °F 3.2 °F 53% 29.68 in 10.0 mi WNW 16.1 mph 23.0 mph N/A   Clear
6:35 PM 15.8 °F 4.2 °F 3.2 °F 58% 29.69 in 10.0 mi NW 9.2 mph - N/A   Clear
6:55 PM 15.8 °F 0.9 °F 3.2 °F 58% 29.68 in 10.0 mi West 15.0 mph - N/A   Clear
7:15 PM 14.0 °F 2.9 °F 3.2 °F 62% 29.69 in 10.0 mi NW 8.1 mph - N/A   Clear
7:35 PM 14.0 °F 0.5 °F 3.2 °F 62% 29.69 in 10.0 mi NW 11.5 mph - N/A   Clear
7:55 PM 14.0 °F 2.0 °F 3.2 °F 62% 29.68 in 10.0 mi NNW 9.2 mph - N/A   Clear
8:10 PM 12.2 °F -1.0 °F 3.2 °F 67% 29.69 in 10.0 mi NW 10.4 mph - N/A   Clear
8:35 PM 12.2 °F 0.7 °F 3.2 °F 67% 29.69 in 10.0 mi NW 8.1 mph - N/A   Clear
8:55 PM 12.2 °F 2.9 °F 3.2 °F 67% 29.69 in 10.0 mi NW 5.8 mph - N/A   Clear
9:15 PM 10.4 °F -1.5 °F 1.4 °F 67% 29.69 in 10.0 mi NNW 8.1 mph - N/A   Clear
9:35 PM 10.4 °F 4.0 °F 3.2 °F 73% 29.69 in 10.0 mi NNW 3.5 mph - N/A   Clear
9:55 PM 8.6 °F 0.1 °F 1.4 °F 73% 29.69 in 10.0 mi West 4.6 mph - N/A   Clear
10:15 PM 10.4 °F 4.0 °F 1.4 °F 67% 29.68 in 10.0 mi NW 3.5 mph - N/A   Clear
10:35 PM 10.4 °F -0.4 °F 1.4 °F 67% 29.68 in 10.0 mi West 6.9 mph - N/A   Clear
10:55 PM 10.4 °F 4.0 °F 1.4 °F 67% 29.68 in 10.0 mi NW 3.5 mph - N/A   Clear
11:15 PM 10.4 °F -1.5 °F 1.4 °F 67% 29.68 in 10.0 mi NNW 8.1 mph - N/A   Clear
11:35 PM 12.2 °F -0.2 °F 3.2 °F 67% 29.68 in 10.0 mi NW 9.2 mph - N/A   Scattered Clouds
11:55 PM 12.2 °F 1.7 °F 1.4 °F 62% 29.68 in 10.0 mi NNW 6.9 mph - N/A   Mostly Cloudy